Wind_Speed
13 13 14 15 16 16 17 19 20 20 21 22 22 23 23 23 23 21 20 20 19 18 18 17 17 17 18 18 18 18 18 18 19 19 20 20 20 21 21 22 22 23 24
15 15 16 17 18 19 21 22 23 24 25 26 26 27 28 28 28 27 25 24 23 22 21 21 21 21 21 21 21 21 21 21 21 21 22 23 23 24 24 24 25 25 26
17 18 19 20 21 23 24 25 26 27 28 29 30 31 32 33 32 32 30 28 26 26 25 25 25 25 25 25 25 24 24 24 24 25 25 26 26 27 28 28 28 29 29
20 21 22 23 24 25 26 27 28 30 31 33 34 35 36 36 35 35 34 32 29 28 29 29 29 28 28 28 28 28 28 28 28 29 29 30 30 31 31 32 32 33 34
24 25 25 25 27 28 29 31 32 33 35 36 37 38 38 38 37 37 36 35 33 32 31 31 32 31 31 31 31 32 32 32 33 33 33 34 34 35 35 36 37 38 38
28 29 29 29 30 31 32 33 34 35 35 35 36 36 35 35 34 34 35 36 36 35 34 34 34 34 35 35 35 36 36 37 37 37 38 39 39 40 40 41 42 43 43
30 32 32 33 33 34 35 35 35 34 34 33 32 32 31 30 30 30 33 35 36 38 38 38 38 38 38 38 38 40 41 41 42 43 43 44 44 45 45 45 46 47 48
32 33 33 34 36 37 36 35 33 31 30 31 30 30 29 29 28 30 31 31 34 36 38 40 40 41 40 41 43 43 44 45 46 47 48 48 49 49 50 50 51 52 53
33 33 34 36 37 37 34 33 30 30 30 29 28 29 30 29 30 31 31 33 34 35 36 39 41 42 43 45 46 46 48 49 50 51 53 53 54 54 54 55 56 57 58
34 35 36 36 34 33 32 31 31 32 32 32 32 33 32 32 33 33 34 36 37 38 39 41 43 45 47 49 50 50 52 52 54 56 57 58 59 59 59 60 61 61 62
34 36 37 35 33 33 32 32 33 33 35 36 36 37 37 37 38 38 38 39 41 43 44 45 47 49 51 53 54 55 55 57 59 60 61 63 63 64 64 65 66 66 66
37 37 37 36 35 35 35 35 36 37 38 39 40 40 40 41 42 43 44 44 45 47 48 50 51 53 56 57 58 58 59 61 63 64 65 67 68 68 68 69 69 70 70
39 39 39 38 38 37 38 39 40 41 41 41 42 44 45 45 45 46 47 48 49 51 53 54 56 58 60 61 62 63 64 65 66 67 68 69 70 71 71 71 72 72 72
41 41 41 41 41 41 42 42 42 43 43 44 46 48 48 49 49 50 51 52 54 56 56 57 60 61 62 62 63 64 66 67 69 69 69 69 69 70 71 71 71 71 72
43 44 44 44 43 43 44 44 45 45 46 46 48 50 51 51 52 53 54 54 55 56 58 59 61 62 63 63 63 64 65 66 67 67 67 67 67 68 69 69 69 69 69
45 45 44 45 46 46 47 46 46 47 48 48 50 52 53 54 54 54 54 55 57 58 59 61 62 62 62 62 62 62 63 64 64 64 64 63 64 64 64 64 63 63 63
46 46 46 47 48 48 48 48 48 48 49 50 51 52 53 53 53 54 55 56 57 57 58 59 59 59 59 58 59 60 61 61 60 59 59 59 58 58 58 57 57 56 56
46 47 47 48 48 49 49 49 50 49 50 51 52 52 53 53 53 54 55 55 56 56 55 55 55 55 55 55 55 56 55 55 54 53 53 52 51 52 52 52 51 51 51
46 47 47 48 48 49 50 50 50 50 51 51 52 52 52 52 52 52 52 52 53 52 51 50 49 50 49 49 48 48 49 49 48 48 47 47 46 47 47 46 46 47 47
45 45 46 46 47 48 49 49 50 50 50 50 50 50 49 49 50 49 49 48 48 47 46 46 45 44 44 43 43 43 43 43 42 42 42 41 41 41 41 41 42 43 44
44 44 44 45 46 46 47 48 48 48 48 48 47 47 48 47 47 46 45 44 44 43 42 41 40 40 39 38 37 37 36 36 37 37 36 36 35 36 37 37 38 39 39
40 41 42 43 43 44 44 45 45 45 45 45 46 46 45 44 43 42 41 40 39 37 36 35 34 33 32 32 31 31 31 31 30 31 31 31 32 32 33 33 33 34 34
38 39 40 40 41 42 42 43 43 42 42 42 42 41 39 37 36 34 33 32 32 31 30 30 29 28 27 26 26 26 27 27 27 26 26 27 28 29 29 29 29 29 29
35 36 37 38 38 38 39 38 37 37 36 35 34 32 30 29 28 28 27 26 26 25 24 23 22 22 21 22 22 22 22 22 22 22 23 23 24 25 25 25 26 26 26
31 32 33 33 34 34 34 33 33 31 30 28 26 25 23 22 21 21 20 19 19 18 17 17 17 17 17 18 18 18 18 19 19 19 20 21 22 23 23 24 23 23 23
28 29 29 30 29 29 28 27 25 24 23 21 20 18 16 16 15 15 14 14 13 13 13 12 13 13 14 16 16 16 17 17 18 18 20 20 21 21 21 21 21 21 22
Wind_Direction
266 271 274 275 278 281 284 285 287 288 289 289 291 293 293 293 292 291 290 289 289 287 287 287 287 287 287 285 284 281 280 279 277 275 274 273 273 273 273 273 273 273 273
269 273 276 278 281 283 286 288 288 289 289 289 289 289 289 289 289 288 287 286 285 284 284 283 284 283 283 283 281 280 280 280 279 278 276 275 275 275 275 275 275 275 274
272 274 276 279 282 283 285 288 289 289 289 287 286 285 286 286 286 285 283 282 282 283 282 281 281 281 281 282 281 280 280 280 279 278 278 277 277 276 276 276 276 275 274
272 274 276 279 281 283 285 288 289 287 288 288 286 285 284 283 283 281 280 280 279 280 280 279 279 279 279 280 279 278 278 278 278 278 277 277 277 277 277 277 276 275 275
272 273 275 280 282 282 284 287 289 287 289 290 288 284 283 281 280 278 277 278 277 276 276 277 278 276 277 278 278 278 278 278 278 277 277 276 276 276 276 277 277 276 275
272 272 274 279 283 284 286 287 289 290 291 294 292 288 286 285 281 278 275 274 274 275 274 275 275 276 277 277 277 278 278 278 278 277 277 276 276 276 276 276 276 276 276
276 276 279 281 284 285 287 290 290 294 292 295 296 294 292 286 282 278 277 275 274 275 273 272 273 275 276 276 276 277 277 277 277 277 277 276 276 276 276 276 277 277 277
281 278 281 282 284 286 287 291 293 297 296 296 296 294 292 286 283 279 278 276 274 274 273 272 273 274 275 276 276 278 278 277 277 277 277 276 276 276 276 276 276 276 276
281 283 285 285 285 288 290 292 297 298 297 294 293 293 290 286 282 280 277 275 275 276 276 274 275 275 275 276 276 276 276 276 276 276 276 276 276 276 276 276 276 276 276
285 286 288 288 291 293 297 297 297 299 296 294 293 292 289 286 284 281 278 276 275 276 277 276 275 275 274 275 276 275 275 275 274 275 275 276 276 276 276 276 276 276 276
289 290 293 291 292 295 297 299 300 298 296 293 292 291 287 285 284 282 278 276 275 275 276 276 274 274 274 274 275 275 274 274 275 275 275 275 276 275 275 275 276 276 276
293 294 294 295 297 297 296 297 296 295 293 291 291 289 288 286 282 280 278 276 275 275 275 275 274 273 273 274 274 275 275 275 276 275 275 276 276 276 275 276 276 276 276
293 297 297 296 297 297 296 295 294 292 291 289 287 287 287 285 282 279 278 277 276 276 276 275 275 274 274 274 275 275 275 276 277 276 276 277 277 277 276 276 277 276 276
294 296 296 295 295 294 294 294 292 291 289 287 286 285 285 284 282 280 278 276 276 277 278 277 276 276 276 276 276 276 277 277 278 277 277 277 277 277 277 277 277 277 277
294 294 295 294 293 293 292 291 289 289 288 286 286 285 284 283 282 280 279 277 277 277 277 277 277 276 276 277 277 278 279 279 279 279 279 279 279 278 278 278 278 278 278
292 292 292 292 290 290 290 289 287 287 287 286 285 283 281 281 279 279 278 277 277 277 276 276 277 278 279 279 280 280 280 281 280 280 281 281 280 279 280 280 280 281 281
290 290 290 289 288 287 286 285 285 286 286 286 285 283 281 281 278 276 277 277 278 278 277 277 279 279 280 280 281 281 282 282 282 282 282 281 281 281 282 283 284 284 283
288 288 288 288 288 287 286 287 287 287 287 287 286 283 282 281 281 281 280 280 280 280 280 281 282 283 284 283 283 283 283 283 284 284 284 284 285 285 285 285 286 285 284
286 287 287 287 288 288 288 289 289 289 289 289 287 286 285 285 285 285 284 284 284 284 285 286 287 287 286 286 286 285 285 285 287 287 288 288 288 288 287 287 287 286 285
287 288 289 289 289 290 290 291 291 292 292 292 291 290 289 289 289 288 288 287 287 287 287 288 287 288 288 288 290 290 289 289 290 291 291 291 290 290 290 290 290 289 288
288 289 291 292 292 293 294 294 295 295 294 293 293 292 292 291 290 290 289 289 289 289 289 289 289 290 291 291 292 292 292 293 293 294 294 294 295 295 295 295 295 294 293
291 293 294 296 296 297 298 298 298 297 296 295 295 294 293 292 291 290 290 290 290 290 291 292 292 293 293 294 296 297 297 297 297 297 297 298 299 299 299 300 299 298 297
296 296 298 299 300 300 300 300 300 299 299 299 298 297 296 295 293 292 292 292 291 291 291 293 294 295 296 298 300 302 303 302 302 302 303 303 304 304 304 303 303 304 303
298 300 301 302 303 303 303 303 303 303 304 304 303 302 302 300 299 297 295 295 294 295 296 297 299 301 303 304 307 309 310 311 313 313 312 312 311 311 311 311 312 312 311
301 303 304 305 305 306 305 306 306 307 308 309 309 308 307 307 307 306 304 303 303 303 304 306 309 312 314 317 318 319 319 320 321 321 321 321 320 320 320 320 320 320 320
304 306 307 308 310 310 311 312 313 314 315 316 317 318 318 319 319 320 320 320 321 320 318 318 323 327 328 328 329 329 330 330 330 330 329 330 329 330 331 331 330 329 329
Height
5885 5886 5886 5886 5886 5887 5887 5886 5886 5885 5885 5884 5883 5882 5881 5880 5879 5879 5879 5878 5877 5876 5876 5875 5874 5873 5873 5872 5871 5871 5870 5870 5869 5869 5869 5868 5868 5868 5867 5867 5868 5868 5868
5882 5883 5883 5883 5883 5884 5883 5883 5883 5882 5881 5880 5880 5878 5877 5876 5875 5874 5874 5873 5873 5872 5871 5871 5870 5869 5869 5868 5867 5866 5866 5865 5865 5864 5864 5863 5863 5863 5862 5862 5862 5862 5862
5879 5879 5880 5880 5880 5880 5879 5879 5878 5878 5877 5876 5875 5874 5873 5871 5869 5868 5867 5867 5867 5867 5866 5865 5865 5864 5863 5863 5862 5861 5860 5860 5859 5858 5858 5857 5857 5856 5856 5856 5855 5855 5855
5875 5875 5876 5876 5876 5875 5875 5874 5873 5873 5872 5870 5869 5868 5867 5865 5864 5862 5860 5860 5861 5861 5860 5859 5858 5858 5857 5856 5855 5855 5854 5853 5853 5852 5851 5850 5850 5849 5848 5848 5847 5847 5847
5870 5870 5870 5871 5870 5870 5869 5868 5868 5867 5866 5864 5861 5860 5859 5857 5856 5854 5853 5852 5853 5853 5852 5852 5851 5850 5850 5849 5848 5848 5847 5846 5845 5844 5843 5842 5841 5841 5840 5839 5839 5838 5837
5864 5864 5864 5864 5864 5864 5863 5862 5861 5859 5858 5856 5853 5852 5851 5850 5848 5847 5846 5845 5844 5844 5844 5844 5843 5842 5842 5841 5841 5840 5839 5838 5837 5836 5834 5833 5832 5831 5830 5829 5828 5828 5827
5858 5858 5858 5857 5857 5856 5856 5855 5853 5852 5850 5848 5846 5844 5843 5842 5841 5840 5839 5838 5837 5837 5836 5835 5835 5834 5833 5832 5832 5831 5830 5828 5827 5825 5824 5823 5822 5821 5819 5818 5817 5816 5815
5851 5851 5850 5850 5849 5848 5848 5847 5846 5844 5842 5841 5839 5837 5836 5835 5834 5832 5831 5831 5830 5829 5827 5826 5826 5825 5824 5823 5822 5821 5819 5818 5816 5814 5812 5811 5809 5808 5807 5806 5805 5803 5802
5844 5843 5842 5842 5841 5840 5840 5839 5838 5837 5835 5834 5831 5830 5829 5828 5827 5826 5824 5823 5822 5821 5819 5818 5816 5815 5814 5813 5812 5810 5808 5806 5804 5802 5800 5798 5796 5795 5793 5792 5790 5789 5788
5837 5836 5835 5834 5833 5832 5832 5831 5831 5829 5827 5826 5824 5823 5821 5819 5818 5817 5816 5815 5813 5811 5810 5808 5806 5804 5802 5800 5799 5798 5796 5793 5791 5788 5786 5784 5782 5780 5778 5777 5775 5773 5772
5829 5828 5828 5826 5825 5825 5824 5823 5823 5821 5819 5817 5815 5814 5811 5810 5809 5807 5806 5805 5803 5801 5799 5797 5794 5792 5790 5788 5786 5784 5782 5779 5776 5773 5771 5768 5766 5764 5762 5760 5758 5756 5754
5822 5820 5819 5818 5818 5816 5816 5815 5814 5812 5810 5808 5806 5804 5802 5800 5798 5797 5795 5793 5792 5789 5787 5784 5781 5779 5776 5774 5772 5769 5767 5764 5760 5757 5754 5752 5749 5747 5744 5742 5740 5738 5736
5814 5813 5811 5810 5809 5808 5806 5805 5804 5802 5800 5798 5796 5793 5791 5789 5787 5785 5783 5781 5779 5776 5773 5770 5766 5764 5761 5759 5757 5753 5750 5746 5743 5739 5736 5733 5731 5728 5725 5723 5720 5718 5716
5806 5804 5802 5801 5799 5798 5796 5795 5793 5791 5789 5786 5784 5782 5779 5777 5774 5772 5769 5767 5764 5761 5758 5754 5750 5747 5744 5742 5739 5735 5732 5728 5725 5721 5717 5714 5711 5708 5705 5703 5700 5698 5696
5796 5794 5792 5791 5789 5787 5785 5783 5782 5779 5777 5775 5772 5769 5766 5763 5761 5758 5755 5752 5750 5747 5743 5738 5734 5730 5727 5724 5721 5717 5714 5710 5706 5702 5698 5695 5692 5689 5686 5683 5681 5678 5676
5786 5784 5782 5780 5778 5776 5774 5772 5770 5767 5765 5762 5759 5756 5753 5750 5746 5743 5740 5737 5734 5731 5727 5722 5717 5713 5710 5707 5703 5700 5695 5692 5688 5684 5681 5677 5673 5670 5668 5665 5662 5659 5657
5776 5774 5771 5769 5767 5765 5762 5760 5757 5754 5751 5748 5745 5742 5739 5736 5732 5728 5725 5721 5717 5713 5710 5705 5701 5697 5693 5690 5686 5682 5679 5675 5672 5668 5665 5661 5658 5654 5651 5649 5645 5643 5640
5766 5764 5761 5759 5756 5753 5750 5747 5744 5741 5738 5735 5731 5728 5724 5721 5717 5713 5709 5705 5701 5697 5693 5689 5685 5681 5678 5674 5671 5667 5664 5660 5657 5653 5650 5647 5644 5640 5637 5634 5631 5628 5625
5755 5753 5750 5747 5745 5742 5738 5735 5732 5728 5724 5721 5717 5713 5709 5706 5702 5698 5694 5690 5686 5682 5678 5675 5671 5667 5663 5660 5657 5654 5650 5647 5643 5640 5637 5635 5631 5628 5624 5621 5617 5614 5611
5745 5742 5739 5736 5733 5730 5727 5723 5719 5715 5711 5707 5703 5699 5695 5691 5687 5683 5680 5676 5672 5668 5665 5661 5658 5654 5651 5647 5644 5641 5638 5635 5631 5628 5625 5622 5619 5616 5613 5609 5605 5601 5598
5735 5732 5729 5726 5722 5718 5714 5710 5706 5702 5698 5693 5689 5685 5681 5677 5673 5669 5666 5662 5659 5655 5652 5649 5646 5643 5640 5637 5634 5631 5628 5625 5621 5618 5615 5612 5609 5605 5602 5598 5594 5590 5586
5725 5722 5719 5715 5711 5707 5703 5699 5694 5690 5685 5681 5676 5672 5668 5664 5660 5656 5653 5649 5647 5644 5641 5638 5635 5633 5630 5628 5625 5622 5619 5616 5613 5610 5607 5604 5600 5596 5593 5589 5585 5580 5576
5716 5713 5709 5705 5701 5697 5692 5688 5683 5678 5674 5669 5664 5659 5655 5652 5648 5645 5642 5639 5636 5633 5631 5629 5627 5625 5623 5620 5618 5615 5612 5609 5606 5602 5600 5596 5592 5589 5585 5581 5577 5572 5568
5707 5704 5700 5696 5691 5687 5682 5678 5673 5668 5663 5658 5653 5649 5645 5642 5639 5636 5633 5631 5628 5626 5624 5622 5620 5619 5616 5614 5612 5609 5606 5604 5600 5597 5594 5591 5587 5583 5579 5574 5570 5565 5561
5699 5696 5692 5688 5683 5678 5674 5669 5664 5659 5655 5650 5646 5642 5639 5636 5632 5629 5626 5624 5622 5620 5619 5617 5616 5614 5612 5610 5608 5605 5603 5600 5597 5593 5590 5586 5582 5578 5574 5569 5565 5560 5556
5692 5689 5685 5680 5676 5671 5666 5662 5657 5653 5649 5645 5641 5637 5635 5632 5629 5625 5623 5620 5618 5617 5616 5614 5613 5611 5609 5607 5605 5602 5600 5597 5594 5590 5587 5583 5578 5574 5570 5565 5561 5556 5551